Corpus Christi, TX

5:13 PM CDT on March 23, 2017 (GMT -0500)
Corpus Christi International

Weather History for KCRP - July, 2014

Change the Weather History Date:

Tuesday, July 29, 2014

  Actual Average Record
Temperature  
Mean Temperature 86 °F 84 °F  
Max Temperature 100 °F 94 °F 100 °F (1975)
Min Temperature 71 °F 75 °F 71 °F (2000)
Degree Days  
Heating Degree Days 0 0  
Month to date heating degree days 0 0  
Since 1 June heating degree days 0 0  
Since 1 July heating degree days 0 0  
Cooling Degree Days 21 20  
Month to date cooling degree days 576 548  
Year to date cooling degree days 1989 1911  
Since 1 June cooling degree days 1183 1070  
Growing Degree Days 36 (Base 50)    
Moisture  
Dew Point 70 °F    
Average Humidity 65    
Maximum Humidity 100    
Minimum Humidity 29    
Precipitation  
Precipitation 0.00 in 0.06 in 1.13 in (1933)
Month to date precipitation 0.74 2.67  
Year to date precipitation 9.25 16.30  
Snow  
Snow 0.00 in - - ()
Month to date snowfall 0.0  
Since 1 June snowfall 0.0  
Since 1 July snowfall 0.0  
Snow Depth 0.00 in    
Sea Level Pressure  
Sea Level Pressure 30.03 in    
Wind  
Wind Speed 9 mph (SE)    
Max Wind Speed 20 mph    
Max Gust Speed 29 mph    
Visibility 9 miles    
Events Fog    
T = Trace of Precipitation, MM = Missing Value Source: NWS Daily Summary

Daily Weather History Graph

Daily Weather History Graph

Search for Another Location

Airport or City:

Trip Planner

Search our weather history database for the weather conditions in past years. The results will help you decide how hot, cold, wet, or windy it might be!

Date:

Astronomy

Jul. 29, 2014 Rise Set
Actual Time 6:51 AM CDT 8:21 PM CDT
Civil Twilight 6:25 AM CDT 8:46 PM CDT
Nautical Twilight 5:55 AM CDT 9:16 PM CDT
Astronomical Twilight 5:23 AM CDT 9:48 PM CDT
Moon 9:11 AM CDT (7/29) 9:54 PM CDT (7/29)
Length of Visible Light 14h 20m
Length of Day
13h 29m
Waxing Crescent, 7% of the Moon is Illuminated
Jul 29
Waxing Crescent
Aug 3
First Quarter
Aug 10
Full
Aug 17
Last Quarter
Aug 25
New

Hourly Weather History & Observations

Time (CDT) Temp. Heat Index Dew Point Humidity Pressure Visibility Wind Dir Wind Speed Gust Speed Precip Events Conditions
12:51 AM 78.1 °F - 73.9 °F 87% 30.04 in 10.0 mi South 6.9 mph - N/A   Scattered Clouds
1:51 AM 77.0 °F - 73.0 °F 88% 30.04 in 10.0 mi SSE 3.5 mph - N/A   Scattered Clouds
2:51 AM 75.0 °F - 73.0 °F 94% 30.04 in 10.0 mi Calm Calm - N/A   Scattered Clouds
3:51 AM 73.9 °F - 73.0 °F 97% 30.04 in 10.0 mi Calm Calm - N/A   Partly Cloudy
4:51 AM 72.0 °F - 71.1 °F 97% 30.03 in 10.0 mi South 5.8 mph - N/A   Partly Cloudy
5:51 AM 72.0 °F - 70.0 °F 93% 30.04 in 6.0 mi Calm Calm - N/A Fog Partly Cloudy
6:13 AM 71.1 °F - 70.0 °F 96% 30.05 in 1.8 mi NNE 4.6 mph - N/A Fog Partly Cloudy
6:22 AM 71.1 °F - 70.0 °F 96% 30.06 in 2.5 mi NNE 3.5 mph - N/A Fog Partly Cloudy
6:51 AM 71.1 °F - 70.0 °F 96% 30.05 in 3.0 mi Calm Calm - N/A Fog Partly Cloudy
7:51 AM 73.9 °F - 73.0 °F 97% 30.07 in 5.0 mi Calm Calm - N/A Fog Partly Cloudy
8:51 AM 81.0 °F 87.3 °F 75.9 °F 85% 30.09 in 10.0 mi SSE 6.9 mph - N/A   Partly Cloudy
9:51 AM 84.9 °F 93.3 °F 75.0 °F 72% 30.09 in 10.0 mi South 11.5 mph - N/A   Scattered Clouds
10:51 AM 90.0 °F 96.9 °F 72.0 °F 55% 30.08 in 10.0 mi South 10.4 mph - N/A   Partly Cloudy
11:51 AM 93.0 °F 97.9 °F 69.1 °F 45% 30.07 in 10.0 mi South 10.4 mph - N/A   Scattered Clouds
12:51 PM 96.1 °F 98.8 °F 64.9 °F 36% 30.05 in 10.0 mi SE 9.2 mph - N/A   Scattered Clouds
1:51 PM 97.0 °F 103.5 °F 70.0 °F 41% 30.04 in 10.0 mi ESE 16.1 mph 21.9 mph N/A   Scattered Clouds
2:51 PM 98.1 °F 101.8 °F 66.0 °F 35% 30.02 in 10.0 mi SE 12.7 mph 27.6 mph N/A   Scattered Clouds
3:51 PM 98.1 °F 98.6 °F 61.0 °F 29% 30.01 in 10.0 mi SE 16.1 mph 24.2 mph N/A   Mostly Cloudy
4:51 PM 96.1 °F 98.3 °F 64.0 °F 35% 30.00 in 10.0 mi SE 18.4 mph 27.6 mph N/A   Mostly Cloudy
5:51 PM 93.9 °F 97.0 °F 66.0 °F 40% 29.98 in 10.0 mi ESE 16.1 mph - N/A   Mostly Cloudy
6:51 PM 91.0 °F 95.6 °F 69.1 °F 48% 29.99 in 10.0 mi SE 19.6 mph - N/A   Mostly Cloudy
7:51 PM 87.1 °F 93.6 °F 72.0 °F 61% 29.99 in 10.0 mi SE 17.3 mph - N/A   Mostly Cloudy
8:51 PM 84.0 °F 90.2 °F 73.0 °F 69% 29.99 in 10.0 mi SE 13.8 mph - N/A   Mostly Cloudy
9:51 PM 82.4 °F 88.2 °F 73.4 °F 74% 30.00 in 10.0 mi SSE 12.7 mph - N/A   Scattered Clouds
10:51 PM 80.1 °F 84.5 °F 73.9 °F 81% 30.01 in 10.0 mi SSE 10.4 mph - N/A   Mostly Cloudy
11:51 PM 79.0 °F - 73.9 °F 84% 30.03 in 10.0 mi SE 8.1 mph - N/A   Mostly Cloudy